Location: Sebastopol
(38.4021°N, 122.8239°W)
Time: 15:21:02
(UTC+00:00)

Uosat 12 SS-18 rocket - Pass Details

Date: 29 October 2020
Orbit: 601 x 1384 km, 64.6° (Epoch: 30 November)

Event Time Altitude Azimuth Distance (km) Brightness Sun altitude
Rises 13:24:15 0° 204° (SSW) 3,241 7.6 -14.4°
Reaches altitude 10° 13:26:48 10° 203° (SSW) 2,214 6.7 -13.9°
Maximum altitude 13:31:42 71° 119° (ESE) 691 4.5 -13.0°
Drops below altitude 10° 13:36:03 10° 36° (NE) 1,974 7.0 -12.1°
Sets 13:38:13 0° 34° (NE) 2,859 7.8 -11.7°
